Manistique, MI

8:44 PM EST on February 09, 2016 (GMT -0500)
Schoolcraft County

Weather History for KISQ - July, 2013

Change the Weather History Date:

Friday, July 12, 2013

  Actual Average Record
Temperature  
Mean Temperature 59 °F -  
Max Temperature 71 °F 75 °F 97 °F (1966)
Min Temperature 47 °F 54 °F 35 °F (1998)
Degree Days  
Heating Degree Days 6    
Growing Degree Days 9 (Base 50)    
Moisture  
Dew Point 57 °F    
Average Humidity 83    
Maximum Humidity 99    
Minimum Humidity 65    
Precipitation  
Precipitation 0.00 in - - ()
Sea Level Pressure  
Sea Level Pressure 30.13 in    
Wind  
Wind Speed 4 mph (South)    
Max Wind Speed 13 mph    
Max Gust Speed 17 mph    
Visibility 10 miles    
Events Fog    
Averages and records for this station are not official NWS values.
T = Trace of Precipitation, MM = Missing Value Source: NWS Daily Summary

Daily Weather History Graph

Daily Weather History Graph

Search for Another Location

Airport or City:

Trip Planner

Search our weather history database for the weather conditions in past years. The results will help you decide how hot, cold, wet, or windy it might be!

Date:

Astronomy

Jul. 12, 2013 Rise Set
Actual Time 6:06 AM EDT 9:33 PM EDT
Civil Twilight 5:29 AM EDT 10:11 PM EDT
Nautical Twilight 4:39 AM EDT 11:00 PM EDT
Astronomical Twilight 3:35 AM EDT 12:03 AM EDT
Moon 10:39 AM EDT (7/12) 11:25 PM EDT (7/12)
Length of Visible Light 16h 42m
Length of Day
15h 27m
Waxing Crescent, 17% of the Moon is Illuminated
Jul 12
Waxing Crescent
Jul 15
First Quarter
Jul 22
Full
Jul 29
Last Quarter
Aug 6
New

Hourly Weather History & Observations

Time (EDT) Temp. Dew Point Humidity Pressure Visibility Wind Dir Wind Speed Gust Speed Precip Events Conditions
12:15 AM 50.4 °F 48.9 °F 95% 30.09 in 10.0 mi West 3.5 mph - N/A   Clear
12:35 AM 52.0 °F 50.5 °F 95% 30.09 in 10.0 mi WSW 3.5 mph - N/A   Clear
12:54 AM 48.9 °F 48.2 °F 97% 30.09 in 10.0 mi Calm Calm - N/A   Clear
1:15 AM 48.7 °F 47.7 °F 96% 30.09 in 10.0 mi WSW 3.5 mph - N/A   Clear
1:35 AM 49.1 °F 48.4 °F 97% 30.10 in 10.0 mi Calm Calm - N/A   Clear
1:54 AM 50.2 °F 48.7 °F 95% 30.09 in 10.0 mi Calm Calm - N/A   Clear
2:15 AM 48.9 °F 47.3 °F 94% 30.10 in 10.0 mi Calm Calm - N/A   Clear
2:35 AM 51.1 °F 49.3 °F 94% 30.10 in 10.0 mi Calm Calm - N/A   Clear
2:55 AM 50.5 °F 48.2 °F 92% 30.10 in 10.0 mi Calm Calm - N/A   Clear
3:15 AM 49.3 °F 47.5 °F 94% 30.10 in 10.0 mi Calm Calm - N/A   Clear
3:35 AM 49.5 °F 47.8 °F 94% 30.10 in 10.0 mi Calm Calm - N/A   Clear
3:55 AM 48.7 °F 47.5 °F 95% 30.09 in 10.0 mi Calm Calm - N/A   Clear
4:15 AM 50.4 °F 48.7 °F 94% 30.10 in 10.0 mi Calm Calm - N/A   Clear
4:34 AM 50.2 °F 49.5 °F 97% 30.11 in 10.0 mi Calm Calm - N/A   Clear
4:55 AM 50.0 °F 48.9 °F 96% 30.11 in 10.0 mi South 3.5 mph - N/A   Clear
5:15 AM 48.6 °F 47.1 °F 95% 30.12 in 10.0 mi Calm Calm - N/A   Clear
5:34 AM 47.8 °F 47.1 °F 97% 30.13 in 10.0 mi Calm Calm - N/A   Clear
5:55 AM 48.9 °F 47.7 °F 95% 30.12 in 10.0 mi Calm Calm - N/A   Clear
6:15 AM 48.4 °F 47.5 °F 97% 30.12 in 10.0 mi Calm Calm - N/A   Clear
6:35 AM 48.7 °F 48.2 °F 98% 30.13 in 0.5 mi Calm Calm - N/A Fog Fog
6:55 AM 50.5 °F 49.6 °F 97% 30.14 in 1.5 mi Calm Calm - N/A   Mist
7:14 AM 52.9 °F 51.4 °F 95% 30.14 in 10.0 mi South 3.5 mph - N/A   Clear
7:35 AM 58.1 °F 57.7 °F 99% 30.14 in 10.0 mi South 3.5 mph - N/A   Clear
7:55 AM 63.0 °F 60.6 °F 92% 30.14 in 10.0 mi SSW 5.8 mph - N/A   Clear
8:14 AM 63.9 °F 60.4 °F 89% 30.15 in 10.0 mi South 5.8 mph - N/A   Clear
8:35 AM 64.9 °F 59.5 °F 83% 30.15 in 10.0 mi South 6.9 mph - N/A   Clear
8:55 AM 65.8 °F 59.4 °F 80% 30.15 in 10.0 mi South 9.2 mph - N/A   Clear
9:15 AM 66.2 °F 59.5 °F 79% 30.16 in 10.0 mi South 8.1 mph - N/A   Clear
9:35 AM 66.7 °F 59.9 °F 79% 30.16 in 10.0 mi South 10.4 mph - N/A   Clear
9:55 AM 66.9 °F 59.7 °F 78% 30.17 in 10.0 mi South 9.2 mph - N/A   Clear
10:15 AM 67.6 °F 60.3 °F 77% 30.17 in 10.0 mi South 8.1 mph - N/A   Clear
10:34 AM 67.8 °F 60.8 °F 78% 30.17 in 10.0 mi SSW 8.1 mph - N/A   Clear
10:55 AM 68.9 °F 61.2 °F 76% 30.17 in 10.0 mi South 8.1 mph - N/A   Clear
11:15 AM 68.9 °F 61.3 °F 77% 30.17 in 10.0 mi South 10.4 mph - N/A   Clear
11:34 AM 69.3 °F 61.9 °F 77% 30.17 in 10.0 mi South 9.2 mph - N/A   Clear
11:55 AM 68.9 °F 61.5 °F 77% 30.17 in 10.0 mi South 12.7 mph - N/A   Clear
12:15 PM 69.3 °F 61.5 °F 76% 30.16 in 10.0 mi South 10.4 mph - N/A   Clear
12:35 PM 69.4 °F 61.2 °F 75% 30.16 in 10.0 mi South 12.7 mph 17.3 mph N/A   Clear
12:55 PM 69.4 °F 61.3 °F 75% 30.16 in 10.0 mi South 9.2 mph - N/A   Clear
1:15 PM 69.3 °F 61.0 °F 75% 30.15 in 10.0 mi South 10.4 mph 16.1 mph N/A   Clear
1:35 PM 70.0 °F 61.5 °F 74% 30.15 in 10.0 mi South 9.2 mph - N/A   Clear
1:55 PM 69.4 °F 61.0 °F 74% 30.15 in 10.0 mi South 8.1 mph - N/A   Clear
2:14 PM 69.3 °F 61.3 °F 76% 30.15 in 10.0 mi South 10.4 mph - N/A   Clear
2:35 PM 69.6 °F 61.7 °F 76% 30.15 in 10.0 mi SSE 8.1 mph - N/A   Clear
2:55 PM 70.0 °F 61.9 °F 75% 30.15 in 10.0 mi South 6.9 mph - N/A   Clear
3:14 PM 69.6 °F 61.3 °F 75% 30.15 in 10.0 mi South 6.9 mph - N/A   Clear
3:35 PM 69.6 °F 61.2 °F 74% 30.14 in 10.0 mi South 8.1 mph - N/A   Clear
3:55 PM 71.1 °F 61.2 °F 71% 30.14 in 10.0 mi SSW 9.2 mph - N/A   Clear
4:14 PM 70.9 °F 61.0 °F 71% 30.14 in 10.0 mi South 9.2 mph - N/A   Clear
4:35 PM 70.0 °F 61.3 °F 74% 30.14 in 10.0 mi SSE 5.8 mph - N/A   Clear
4:55 PM 70.3 °F 61.2 °F 73% 30.13 in 10.0 mi South 6.9 mph - N/A   Clear
5:15 PM 70.9 °F 60.4 °F 69% 30.13 in 10.0 mi South 8.1 mph - N/A   Clear
5:35 PM 70.3 °F 60.6 °F 71% 30.12 in 10.0 mi SSE 8.1 mph - N/A   Clear
5:54 PM 70.5 °F 59.5 °F 68% 30.12 in 10.0 mi South 6.9 mph - N/A   Clear
6:15 PM 69.8 °F 59.2 °F 69% 30.12 in 10.0 mi South 5.8 mph - N/A   Clear
6:35 PM 70.2 °F 58.5 °F 66% 30.11 in 10.0 mi SSE 5.8 mph - N/A   Clear
6:54 PM 70.3 °F 59.2 °F 68% 30.11 in 10.0 mi SSE 4.6 mph - N/A   Clear
7:15 PM 69.4 °F 57.7 °F 66% 30.11 in 10.0 mi South 3.5 mph - N/A   Clear
7:35 PM 68.9 °F 57.2 °F 66% 30.11 in 10.0 mi South 5.8 mph - N/A   Clear
7:54 PM 68.5 °F 56.3 °F 65% 30.11 in 10.0 mi South 5.8 mph - N/A   Clear
8:15 PM 67.5 °F 57.4 °F 70% 30.11 in 10.0 mi South 5.8 mph - N/A   Clear
8:35 PM 66.0 °F 58.8 °F 78% 30.11 in 10.0 mi South 4.6 mph - N/A   Clear
8:55 PM 65.1 °F 59.7 °F 83% 30.11 in 10.0 mi SE 4.6 mph - N/A   Clear
9:15 PM 63.7 °F 59.7 °F 87% 30.11 in 10.0 mi SE 3.5 mph - N/A   Scattered Clouds
9:34 PM 61.7 °F 59.5 °F 93% 30.11 in 10.0 mi SE 3.5 mph - N/A   Clear
9:55 PM 62.1 °F 60.4 °F 94% 30.11 in 10.0 mi SE 3.5 mph - N/A   Clear
10:15 PM 62.4 °F 60.8 °F 94% 30.11 in 10.0 mi ESE 5.8 mph - N/A   Clear
10:34 PM 62.6 °F 60.4 °F 93% 30.10 in 10.0 mi SE 4.6 mph - N/A   Clear
10:55 PM 62.1 °F 59.9 °F 93% 30.10 in 10.0 mi ESE 5.8 mph - N/A   Clear
11:15 PM 62.8 °F 59.0 °F 87% 30.09 in 10.0 mi SE 5.8 mph - N/A   Clear
11:34 PM 62.8 °F 58.5 °F 86% 30.09 in 10.0 mi SE 5.8 mph - N/A   Clear
11:55 PM 62.6 °F 59.2 °F 89% 30.09 in 10.0 mi SE 5.8 mph - N/A   Clear